User: anonymous   Login
Location: Brno
(49.2000°N, 16.6330°E)
Time: 05:28:16
(UTC+02:00)
Language:

Meteor 1-4 Rocket - Orbit

View from above orbital plane
View from above orbital plane
View from above satellite
View from above satellite

Ground track
Ground track

The orbit data is extracted from the following two-line orbital elements,

1 04394U 70037B   15208.86702329  .00001805  00000-0  69494-4 0  9990
2 04394 081.2444 103.7544 0043143 318.2116 041.5825 15.24949693459438
Epoch (UTC): 27 July 2015 20:48:30
Eccentricity: 0.0043143
inclination: 81.2444°
perigee height: 461 km
apogee height: 520 km
right ascension of ascending node: 103.7544°
argument of perigee: 318.2116°
revolutions per day: 15.24949693
mean anomaly at epoch: 41.5825°
orbit number at epoch: 45943

The dashed part of the orbit path shows where the satellite is in the earth's shadow,  

DLR